SCP
0 0 0 0 0 0 0 0 0 0 0 0 0 0 0 0 0 0 0 0 0 0 0 0 0 0 0 0 0 0 0 0 0 0 0 0 0 0 0 0 0 0 0 0 0 0 0 0 0
0 0 0 0 0 0 0 0 0 0 0 0 0 0 0 0 0 0 0 0 0 0 0 0 1 1 0 0 0 0 0 0 0 0 0 0 0 0 0 0 0 0 0 0 0 0 0 0 0
0 0 0 0 0 0 0 0 0 0 0 0 0 0 0 0 0 0 0 0 0 0 0 1 1 1 0 0 0 0 0 0 0 0 0 0 0 0 0 0 0 0 0 0 0 0 0 0 0
0 0 0 0 0 0 0 0 0 0 0 0 0 0 0 0 0 0 0 0 0 0 0 1 1 1 0 0 0 0 0 0 1 0 0 0 0 1 1 1 1 1 1 0 0 0 0 0 0
0 0 0 0 0 0 0 0 0 0 0 0 0 0 0 0 0 0 0 0 0 0 1 1 2 1 1 1 1 1 1 1 1 1 1 1 1 1 1 1 1 1 1 1 0 0 0 0 0
0 0 0 0 0 0 0 0 0 0 0 0 0 0 0 0 0 0 0 0 0 0 1 1 2 2 1 1 1 1 1 1 1 1 1 1 1 1 1 1 1 1 1 1 1 1 0 0 0
0 0 0 0 0 0 0 0 0 0 0 0 0 0 0 0 0 0 0 0 0 0 1 1 2 2 2 2 2 1 1 1 1 1 1 1 1 1 1 1 1 1 1 1 1 1 1 1 1
0 0 0 0 0 0 0 0 0 0 0 0 0 0 0 0 0 0 0 0 0 0 1 1 1 2 2 2 2 2 1 1 1 1 1 1 1 1 1 1 1 1 1 1 1 1 1 1 1
0 0 0 0 0 0 0 0 0 0 0 0 0 0 0 0 0 0 0 0 0 0 0 0 1 1 2 2 2 2 2 1 1 1 1 1 1 1 1 1 1 1 1 1 1 1 1 1 2
0 0 0 0 0 0 0 0 0 0 0 0 0 0 0 0 0 0 0 0 0 0 0 0 0 1 1 2 2 2 2 2 1 1 1 1 1 1 1 1 1 1 1 1 1 1 1 2 2
0 0 0 0 0 0 0 0 0 0 0 0 0 0 0 0 0 0 0 0 0 0 0 0 0 0 1 1 2 2 2 2 2 1 1 1 1 1 1 1 1 1 1 1 1 1 1 1 2
0 0 0 0 0 0 0 0 0 0 0 0 0 0 0 0 0 0 0 0 0 0 0 0 0 0 1 1 2 2 2 2 2 2 2 2 2 1 1 1 1 1 1 1 1 0 1 2 2
0 0 0 0 0 0 0 0 0 0 0 0 0 0 0 0 0 0 0 0 0 0 0 0 0 0 1 1 2 2 2 2 2 2 2 2 2 1 1 1 1 1 1 1 1 1 1 2 3
0 0 0 0 0 0 0 0 0 0 0 0 0 0 0 0 0 0 0 0 0 0 0 0 0 0 1 1 1 1 1 1 2 2 2 2 1 1 1 1 1 1 1 1 2 2 2 3 4
0 0 0 0 0 0 0 0 0 0 0 0 0 0 0 0 0 0 0 0 0 0 0 0 0 0 0 0 0 0 1 1 1 1 1 1 1 1 1 1 1 1 1 1 2 3 3 4 5
0 0 0 0 0 0 0 0 0 0 0 0 0 0 0 0 0 0 0 0 0 0 0 0 0 0 0 0 0 0 0 0 0 1 1 1 1 1 1 1 1 0 1 1 2 3 4 4 5
0 0 0 0 0 0 0 0 0 0 0 0 0 0 0 0 0 0 0 0 0 0 0 0 0 0 0 0 0 0 0 0 0 0 1 1 1 1 1 1 1 1 1 1 2 2 3 4 4
0 0 0 0 0 0 0 0 0 0 0 0 0 0 0 0 0 0 0 0 0 0 0 0 0 0 0 0 0 0 0 0 0 0 0 1 1 1 1 1 1 1 1 1 1 1 2 2 3
0 0 0 0 0 0 0 0 0 0 0 0 0 0 0 0 0 0 0 0 0 0 0 0 0 0 0 0 0 0 0 0 0 0 0 0 1 1 1 1 1 1 1 1 1 1 1 1 2
0 0 0 0 0 0 0 0 0 0 0 0 0 0 0 0 0 0 0 0 0 0 0 0 0 0 0 0 0 0 0 0 0 0 0 0 0 0 0 0 1 1 1 1 1 1 1 1 1
0 0 0 0 0 0 0 0 0 0 0 0 0 0 0 0 0 0 0 0 0 0 0 0 0 0 0 0 0 0 0 0 0 0 0 0 0 0 0 0 0 1 1 1 1 1 0 0 0
0 0 0 0 0 0 0 0 0 0 0 0 0 0 0 0 0 0 0 0 0 0 0 0 0 0 0 0 0 0 0 0 0 0 0 0 0 0 0 0 0 0 1 1 1 0 0 0 0
0 0 0 0 0 0 0 0 0 0 0 0 0 0 0 0 0 0 0 0 0 0 0 0 0 0 0 0 0 0 0 0 0 0 0 0 0 0 0 0 0 0 0 0 0 0 0 0 0
0 0 0 0 0 0 0 0 0 0 0 0 0 0 0 0 0 0 0 0 0 0 0 0 0 0 0 0 0 0 0 0 0 0 0 0 0 0 0 0 0 0 0 0 0 0 0 0 0
0 0 0 0 0 0 0 0 0 0 0 0 0 0 0 0 0 0 0 0 0 0 0 0 0 0 0 0 0 0 0 0 0 0 0 0 0 0 0 0 0 0 0 0 0 0 0 0 0
0 0 0 0 0 0 0 0 0 0 0 0 0 0 0 0 0 0 0 0 0 0 0 0 0 0 0 0 0 0 0 0 0 0 0 0 0 0 0 0 0 0 0 0 0 0 0 0 0
0 0 0 0 0 0 0 0 0 0 0 0 0 0 0 0 0 0 0 0 0 0 0 0 0 0 0 0 0 0 0 0 0 0 0 0 0 0 0 0 0 0 0 0 0 0 0 0 0
0 0 0 0 0 0 0 0 0 0 0 0 0 0 0 0 0 0 0 0 0 0 0 0 0 0 0 0 0 0 0 0 0 0 0 0 0 0 0 0 0 0 0 0 0 0 0 0 0
0 0 0 0 0 0 0 0 0 0 0 0 0 0 0 0 0 0 0 0 0 0 0 0 0 0 0 0 0 0 0 0 0 0 0 0 0 0 0 0 0 0 0 0 0 0 0 0 0
0 0 0 0 0 0 0 0 0 0 0 0 0 0 0 0 0 0 0 0 0 0 0 0 0 0 0 0 0 0 0 0 0 0 0 0 0 0 0 0 0 0 0 0 0 0 0 0 0
Wind_Speed
1 2 4 4 5 5 4 4 1 3 2 0 1 2 4 4 3 1 3 3 1 3 8 12 12 11 11 10 10 9 9 7 6 6 5 5 5 5 6 6 7 8 8 7 6 6 7 8 7
2 3 4 4 5 5 5 3 3 1 3 1 2 3 2 1 2 2 3 4 1 4 7 9 13 11 11 11 11 10 9 7 7 7 6 4 3 5 5 6 7 7 7 6 6 6 7 8 8
2 3 3 4 4 2 2 2 3 4 3 3 2 2 2 0 1 1 3 7 2 4 6 7 11 11 11 11 11 11 10 9 8 8 7 5 4 5 3 3 4 5 5 5 5 6 7 8 8
3 3 3 5 4 2 3 3 6 6 1 2 4 3 2 1 1 3 7 7 3 3 5 7 9 11 10 10 10 9 9 9 7 7 7 6 5 2 1 1 0 2 2 3 5 6 7 7 8
1 3 4 5 4 3 5 7 7 7 3 1 3 4 4 3 1 4 7 6 4 2 3 5 8 9 9 9 9 9 9 9 7 6 6 6 6 4 3 2 1 1 2 4 5 6 7 8 9
2 3 5 5 5 5 5 4 6 7 5 3 4 6 3 3 3 1 5 5 3 1 2 3 6 8 9 10 10 9 9 9 7 7 7 6 6 5 4 3 2 2 2 4 6 6 8 8 9
3 3 4 5 6 5 2 3 5 6 6 3 3 7 3 4 3 2 3 4 4 3 1 3 5 8 8 8 9 9 8 8 7 7 6 5 6 5 4 4 4 4 3 4 6 6 6 7 8
2 3 3 4 4 3 3 4 3 5 5 2 4 6 4 3 3 2 1 2 4 4 2 3 5 7 8 8 8 7 7 8 8 7 4 1 3 1 1 2 1 2 2 3 5 6 6 7 7
3 5 5 4 4 3 2 5 4 4 7 5 5 7 4 0 3 5 5 5 3 1 1 1 5 7 7 7 6 7 7 6 6 6 6 4 4 4 4 1 2 4 4 4 5 6 6 6 7
5 5 4 3 4 6 8 9 10 8 10 11 10 9 5 5 7 8 8 7 5 2 1 3 4 6 7 6 5 6 6 7 7 7 7 6 5 3 1 2 0 5 5 6 6 6 6 5 7
4 5 3 4 6 7 10 11 7 10 13 13 14 14 7 8 8 9 8 7 4 3 2 3 4 4 5 4 3 3 3 4 5 6 6 4 4 3 2 3 3 5 6 7 8 8 7 8 6
6 7 7 6 5 8 10 11 11 11 15 14 13 12 11 10 10 9 8 6 4 2 1 3 3 1 3 4 3 3 3 4 4 5 6 5 4 3 3 2 2 3 3 5 6 6 8 9 8
8 7 7 8 10 10 10 11 10 13 9 8 9 9 10 10 9 8 6 4 4 3 1 3 1 2 4 4 4 3 4 4 5 4 5 5 4 4 3 2 2 2 3 4 5 7 9 9 9
3 7 10 9 8 4 6 6 3 5 5 8 9 12 12 10 8 7 7 7 6 4 3 1 0 3 5 4 4 3 3 3 3 4 5 5 4 3 2 1 2 3 3 4 5 7 8 8 6
4 8 8 2 2 3 6 7 4 8 11 13 15 14 12 10 8 8 8 7 7 6 4 5 3 3 4 5 4 2 2 2 3 3 5 5 5 5 4 4 3 3 4 6 5 6 5 5 5
4 5 3 3 5 4 7 9 9 14 15 14 13 13 13 13 11 8 8 8 8 7 7 7 5 6 5 3 3 2 2 2 2 2 3 5 6 7 6 5 4 4 4 5 5 5 5 6 5
3 5 5 3 5 6 6 10 13 17 11 13 15 17 18 19 21 17 10 9 9 10 9 8 7 7 6 5 4 3 2 2 2 2 3 4 6 6 5 4 4 4 4 4 5 5 5 4 5
6 8 7 8 6 8 9 10 12 15 13 15 17 19 20 21 22 21 16 9 9 9 9 9 8 7 6 4 3 3 4 3 3 3 2 3 4 5 4 3 3 4 3 3 4 6 4 4 5
5 8 11 9 4 7 10 11 6 12 14 16 17 19 20 20 22 23 21 15 9 9 10 10 10 9 7 5 5 5 5 4 3 2 2 3 3 4 4 3 3 3 3 3 4 3 4 2 2
8 12 10 3 1 8 10 9 8 12 14 16 17 18 19 21 23 24 24 20 15 11 11 12 11 10 9 7 5 4 4 4 3 3 3 3 3 3 2 3 3 2 2 3 4 5 4 2 2
9 8 7 11 13 7 7 6 13 11 12 14 16 18 21 23 23 25 25 24 20 14 12 11 12 11 10 8 5 4 4 4 5 5 4 4 4 4 4 4 3 3 3 3 3 3 4 2 2
6 4 11 16 14 6 4 4 12 9 10 15 17 19 20 21 22 23 25 27 26 21 14 12 11 11 10 9 7 8 7 8 8 6 5 4 4 4 4 3 4 4 4 4 4 3 3 3 3
7 12 14 14 11 9 4 6 6 6 8 15 18 19 19 18 19 21 23 24 24 23 17 12 12 11 10 8 9 9 9 8 6 6 6 5 5 5 4 4 4 4 4 4 4 4 4 4 4
11 15 11 5 6 6 4 3 1 6 9 13 17 19 17 16 17 19 21 21 21 22 21 16 14 13 12 11 10 10 10 9 8 8 6 5 4 4 4 4 3 3 4 5 4 4 5 5 5
11 14 7 4 4 3 4 6 2 9 9 12 15 16 15 15 17 19 22 22 23 24 23 20 18 16 15 13 12 11 10 10 10 9 7 6 5 5 4 3 4 4 5 5 5 5 6 7 7
7 6 6 8 11 13 8 7 5 9 6 9 12 15 16 17 17 18 19 20 20 21 21 21 20 19 18 17 15 13 12 9 9 9 7 6 4 3 2 3 4 5 5 6 5 5 6 6 8
3 2 2 8 10 11 5 2 6 5 7 15 18 21 21 20 20 19 20 20 20 20 20 20 20 20 19 19 19 14 12 11 10 8 6 4 2 0 2 3 4 5 5 6 5 5 6 6 7
3 3 3 3 8 12 16 13 3 6 17 23 24 22 20 22 20 19 19 20 20 20 19 18 19 19 19 19 17 13 10 11 9 7 6 5 4 1 3 4 5 6 7 7 7 6 6 6 7
5 1 1 4 5 9 17 7 9 14 22 24 25 23 23 22 18 19 21 21 20 19 18 19 20 20 19 19 15 14 13 12 10 8 6 6 5 1 3 5 6 7 8 8 8 8 7 8 8
2 2 4 7 9 10 15 14 7 20 23 24 25 24 23 20 21 24 24 22 19 17 16 16 18 18 18 19 11 9 9 8 9 8 7 5 6 3 3 4 5 5 6 6 7 8 7 7 6
Wind_Direction
282 241 255 246 231 229 185 165 221 200 201 7 315 296 322 349 339 351 93 41 291 121 147 161 173 178 184 190 194 199 206 210 212 217 238 252 238 245 236 217 215 210 211 217 223 224 219 219 220
316 277 247 245 246 211 154 155 198 223 7 334 220 246 250 50 48 113 142 23 319 140 152 164 164 180 186 191 196 203 206 214 230 234 226 258 276 267 251 209 213 216 219 225 232 228 229 226 219
258 286 275 259 250 254 107 105 27 324 305 262 247 265 299 144 162 190 34 348 298 162 158 154 160 183 191 196 199 205 210 219 225 237 226 229 253 267 244 211 212 224 219 218 229 230 232 233 224
260 237 230 254 259 308 324 12 338 311 240 253 282 259 247 299 324 353 346 330 272 173 159 147 178 190 199 206 210 215 221 228 223 241 230 222 236 251 198 100 197 273 242 223 228 232 234 234 224
234 260 253 252 266 286 297 311 313 296 284 275 274 274 254 171 266 332 339 326 278 194 157 152 181 198 206 214 219 222 228 228 220 241 229 223 234 236 243 167 124 289 246 253 259 251 242 232 222
211 257 253 255 264 286 293 314 306 279 271 256 257 268 266 142 198 34 359 356 343 304 147 162 171 207 210 213 219 224 228 222 220 234 242 236 239 237 237 218 207 242 263 258 261 261 254 241 228
243 251 276 284 287 290 323 339 304 314 288 294 299 279 272 180 147 92 38 38 51 60 165 198 197 198 212 217 219 223 226 226 223 230 247 249 233 223 237 268 232 225 247 286 280 266 264 250 238
265 260 252 256 277 276 7 331 325 317 316 323 274 280 310 62 134 164 98 46 58 70 105 222 229 219 218 211 207 213 218 219 210 213 232 326 294 303 259 322 328 321 309 305 314 284 265 259 251
223 242 246 239 243 256 325 325 323 309 277 267 253 282 324 83 202 221 233 234 233 170 62 277 248 237 232 231 201 206 208 217 212 205 199 206 228 232 240 221 39 304 301 302 308 318 308 280 259
225 246 259 272 276 299 313 311 313 293 282 282 273 260 247 246 235 238 244 255 264 275 323 324 302 266 242 230 224 218 200 207 206 206 209 216 224 225 308 317 211 267 267 264 264 279 294 273 250
231 261 298 279 276 290 296 300 300 289 293 301 307 314 311 258 245 242 241 254 280 310 323 335 326 297 249 213 234 212 200 206 212 219 225 228 234 230 224 242 222 235 224 240 240 244 246 249 249
250 258 270 288 292 286 291 300 292 286 287 311 310 307 302 276 249 237 238 243 244 248 318 347 343 347 205 186 176 209 195 198 209 213 222 224 224 231 239 249 252 248 244 246 246 250 247 249 248
244 273 271 270 287 289 291 288 296 280 301 324 324 311 301 286 259 240 243 242 234 235 259 2 3 116 141 163 163 189 192 200 212 216 223 233 239 242 237 233 236 242 238 243 242 236 234 234 235
286 280 284 295 290 278 285 288 280 292 334 319 336 336 325 304 276 248 235 233 230 231 234 266 252 144 148 156 169 174 192 210 223 228 222 225 243 254 269 262 255 264 257 249 244 240 238 230 212
274 283 277 232 336 16 311 278 261 357 335 326 332 336 338 326 298 266 254 250 243 233 234 240 238 211 171 158 165 171 179 208 222 237 233 219 212 210 199 200 211 221 247 260 249 256 253 244 215
253 254 268 92 10 33 329 316 337 353 344 350 7 13 14 12 355 312 275 259 246 238 234 234 238 239 229 206 191 189 187 208 213 231 231 226 218 209 210 214 222 219 223 237 234 223 217 214 205
217 291 324 352 54 4 334 315 346 11 20 44 44 41 37 31 21 4 324 272 251 241 239 235 234 237 230 223 221 219 207 217 206 220 233 227 218 212 218 237 242 239 239 237 237 227 226 207 198
334 319 319 315 359 344 317 315 10 48 55 53 43 36 32 27 20 12 358 315 274 258 249 243 235 232 225 218 216 210 204 207 206 207 208 211 199 197 208 216 212 219 228 238 251 239 223 233 221
318 301 297 309 7 324 316 315 29 69 53 49 43 37 29 25 19 14 8 353 311 272 254 244 238 231 223 215 214 212 206 198 193 180 195 214 204 201 212 205 196 206 202 197 206 202 203 199 233
298 296 308 311 328 307 310 303 111 90 66 54 44 32 22 19 15 10 8 3 341 298 264 248 241 238 232 233 233 238 211 195 170 148 138 141 150 159 184 197 195 195 187 171 179 185 182 173 191
305 306 321 312 314 289 292 208 146 114 71 51 41 31 25 21 12 8 5 3 354 334 284 254 246 242 237 231 213 201 186 185 183 184 171 151 150 147 153 165 180 188 197 181 170 177 201 190 188
317 343 303 300 306 312 351 235 169 143 64 36 27 21 20 16 10 8 5 3 360 345 312 275 265 256 245 232 222 216 218 215 206 199 189 178 184 178 166 170 179 193 200 190 184 187 196 209 208
326 314 292 295 285 272 206 240 164 134 44 25 17 14 15 12 7 6 6 1 358 355 339 299 285 271 255 245 246 241 240 235 215 206 202 203 195 195 186 194 195 205 211 207 202 204 207 217 214
315 306 285 251 248 241 136 277 224 67 32 17 13 11 9 6 2 3 2 358 356 357 355 331 294 283 269 257 250 244 238 225 212 210 214 213 202 187 187 198 202 218 228 231 224 221 225 227 234
345 340 318 264 259 331 109 280 95 96 52 19 8 359 357 357 358 359 358 357 356 355 353 346 324 300 287 276 265 252 242 229 218 214 220 221 205 194 188 221 231 244 250 254 247 233 227 227 232
359 349 340 313 315 310 292 274 103 114 52 10 355 347 351 354 356 353 351 349 346 344 345 342 335 317 299 283 266 254 245 235 227 221 214 216 217 211 219 258 272 274 273 270 262 252 244 234 231
332 349 345 291 289 287 275 182 162 153 358 357 354 349 351 349 345 341 340 337 333 331 332 337 335 325 309 295 271 250 254 253 240 223 217 191 176 198 283 299 296 290 289 285 281 268 263 256 249
14 7 299 269 304 299 294 301 356 31 359 354 350 347 339 332 331 333 331 327 326 326 326 328 330 323 312 297 277 257 238 243 243 217 192 155 127 69 306 322 312 304 299 295 290 284 282 276 264
323 351 15 303 284 293 302 315 81 19 358 347 342 339 335 333 328 323 325 324 320 319 326 327 330 328 322 307 267 234 221 213 202 204 169 149 120 71 327 330 315 311 305 295 286 279 278 271 269
272 59 13 320 291 278 282 283 51 2 352 344 336 332 330 329 322 321 322 320 317 319 325 324 328 331 331 322 285 223 191 205 211 189 152 152 120 104 23 343 329 326 320 312 298 282 275 273 274